,,,PA_Meas_PMT16A,,PR_Meas_QMR101_102,,RH_Meas_QMH101,,SR_Meas_QMS101,,TA_Meas_QMH101,,GenWind,,GenWind,
date,time,status,PA,status,PR,status,RH,status,SR,status,TA,status,DirAvg,status,SpdAvg,
2011-07-23, 00:00:05,VALID,1003.4,VALID,0.5,INVALID,163.906,VALID,0,VALID,22.5731,VALID,201,VALID,0,
2011-07-23, 00:01:05,VALID,1003.47,VALID,1.5,INVALID,163.914,VALID,0,VALID,22.5731,VALID,189,VALID,0,
2011-07-23, 00:02:05,VALID,1003.42,VALID,1,INVALID,163.838,VALID,0,VALID,22.5342,VALID,243,VALID,0,
2011-07-23, 00:03:05,VALID,1003.49,VALID,1,INVALID,163.906,VALID,0,VALID,22.4953,VALID,182,VALID,0,
2011-07-23, 00:04:05,VALID,1003.53,VALID,1,INVALID,163.853,VALID,0,VALID,22.4758,VALID,209,VALID,0,
2011-07-23, 00:05:05,VALID,1003.55,VALID,1,INVALID,163.853,VALID,0,VALID,22.398,VALID,172,VALID,0,
2011-07-23, 00:06:05,VALID,1003.48,VALID,0.5,INVALID,163.876,VALID,0,VALID,22.3608,VALID,215,VALID,0,
2011-07-23, 00:07:05,VALID,1003.47,VALID,0.5,INVALID,163.853,VALID,0,VALID,22.2812,VALID,227,VALID,0,
2011-07-23, 00:08:05,VALID,1003.41,VALID,0.5,INVALID,163.868,VALID,0,VALID,22.2423,VALID,241,VALID,0,
2011-07-23, 00:09:05,VALID,1003.33,VALID,0.5,INVALID,163.891,VALID,0,VALID,22.2229,VALID,301,VALID,0,
2011-07-23, 00:10:05,VALID,1003.28,VALID,0,INVALID,163.845,VALID,0,VALID,22.2246,VALID,273,VALID,0,
2011-07-23, 00:11:05,VALID,1003.17,VALID,0.5,INVALID,163.884,VALID,0,VALID,22.184,VALID,289,VALID,0,
2011-07-23, 00:12:05,VALID,1003.08,VALID,0.5,INVALID,163.929,VALID,0,VALID,22.184,VALID,302,VALID,0,
2011-07-23, 00:13:05,VALID,1003.01,VALID,0,INVALID,163.853,VALID,0,VALID,22.184,VALID,258,VALID,0,
2011-07-23, 00:14:05,VALID,1002.99,VALID,0.5,INVALID,163.922,VALID,0,VALID,22.2034,VALID,323,VALID,0,
2011-07-23, 00:15:05,VALID,1003.02,VALID,0,INVALID,163.861,VALID,0,VALID,22.184,VALID,230,VALID,0,
2011-07-23, 00:16:05,VALID,1003.04,VALID,0.5,INVALID,163.884,VALID,0,VALID,22.1823,VALID,228,VALID,0,
2011-07-23, 00:17:05,VALID,1003.14,VALID,0,INVALID,163.899,VALID,0,VALID,22.184,VALID,243,VALID,0,
2011-07-23, 00:18:05,VALID,1003.24,VALID,0,INVALID,163.899,VALID,0,VALID,22.184,VALID,281,VALID,0,
2011-07-23, 00:19:05,VALID,1003.34,VALID,0.5,INVALID,163.884,VALID,0,VALID,22.2034,VALID,312,VALID,0,
2011-07-23, 00:20:05,VALID,1003.43,VALID,0.5,INVALID,163.945,VALID,0,VALID,22.1823,VALID,263,VALID,0,
2011-07-23, 00:21:05,VALID,1003.43,VALID,0,INVALID,163.861,VALID,0,VALID,22.1645,VALID,288,VALID,0,
2011-07-23, 00:22:05,VALID,1003.44,VALID,0.5,INVALID,163.937,VALID,0.100563,VALID,22.1645,VALID,302,VALID,0,
2011-07-23, 00:23:05,VALID,1003.37,VALID,0.5,INVALID,163.876,VALID,0,VALID,22.1045,VALID,291,VALID,0,
2011-07-23, 00:24:05,VALID,1003.31,VALID,0.5,INVALID,163.891,VALID,0,VALID,22.1062,VALID,278,VALID,0,
2011-07-23, 00:25:05,VALID,1003.26,VALID,0.5,INVALID,163.906,VALID,0,VALID,22.0656,VALID,350,VALID,0,
2011-07-23, 00:26:05,VALID,1003.23,VALID,0,INVALID,163.891,VALID,0,VALID,22.0478,VALID,311,VALID,0,
2011-07-23, 00:27:05,VALID,1003.23,VALID,0.5,INVALID,163.937,VALID,0,VALID,22.0283,VALID,277,VALID,0,
2011-07-23, 00:28:05,VALID,1003.27,VALID,0,INVALID,163.922,VALID,0,VALID,21.9894,VALID,314,VALID,0,
2011-07-23, 00:29:05,VALID,1003.25,VALID,0.5,INVALID,163.906,VALID,0.100563,VALID,22.0089,VALID,289,VALID,0,
2011-07-23, 00:30:05,VALID,1003.21,VALID,0,INVALID,163.899,VALID,0,VALID,21.9894,VALID,284,VALID,0,
2011-07-23, 00:31:05,VALID,1003.14,VALID,0.5,INVALID,163.899,VALID,0,VALID,22.0106,VALID,294,VALID,0,
2011-07-23, 00:32:05,VALID,1003.09,VALID,0,INVALID,163.891,VALID,0,VALID,22.0106,VALID,265,VALID,0,
2011-07-23, 00:33:05,VALID,1003.12,VALID,0.5,INVALID,163.884,VALID,0,VALID,21.9894,VALID,273,VALID,0,
2011-07-23, 00:34:05,VALID,1003.1,VALID,0,INVALID,163.868,VALID,0,VALID,22.0106,VALID,269,VALID,0,
2011-07-23, 00:35:05,VALID,1003.17,VALID,0,INVALID,163.891,VALID,0,VALID,22.0495,VALID,247,VALID,0,
2011-07-23, 00:36:05,VALID,1003.14,VALID,0.5,INVALID,163.891,VALID,0,VALID,22.0706,VALID,235,VALID,0,
2011-07-23, 00:37:05,VALID,1003.1,VALID,0,INVALID,163.876,VALID,0,VALID,22.0901,VALID,237,VALID,0,
2011-07-23, 00:38:05,VALID,1003.09,VALID,0,INVALID,163.876,VALID,0,VALID,22.0884,VALID,242,VALID,0,
2011-07-23, 00:39:05,VALID,1003.08,VALID,0.5,INVALID,163.884,VALID,0,VALID,22.0884,VALID,242,VALID,0,
2011-07-23, 00:40:05,VALID,1003.05,VALID,0,INVALID,163.891,VALID,0,VALID,22.0884,VALID,245,VALID,0,
2011-07-23, 00:41:05,VALID,1003.04,VALID,0,INVALID,163.876,VALID,0,VALID,22.0884,VALID,294,VALID,0,
2011-07-23, 00:42:05,VALID,1003.05,VALID,0.5,INVALID,163.899,VALID,0,VALID,22.0884,VALID,293,VALID,0,
2011-07-23, 00:43:05,VALID,1003.05,VALID,0,INVALID,163.891,VALID,0,VALID,22.0672,VALID,288,VALID,0,
2011-07-23, 00:44:05,VALID,1003.02,VALID,0,INVALID,163.937,VALID,0,VALID,22.0672,VALID,294,VALID,0,
2011-07-23, 00:45:05,VALID,1003.02,VALID,0.5,INVALID,163.891,VALID,0,VALID,22.0672,VALID,300,VALID,0,
2011-07-23, 00:46:05,VALID,1002.98,VALID,0,INVALID,163.899,VALID,0,VALID,22.0689,VALID,301,VALID,0,
2011-07-23, 00:47:05,VALID,1002.94,VALID,0.5,INVALID,163.861,VALID,0,VALID,22.0901,VALID,298,VALID,0,
2011-07-23, 00:48:05,VALID,1002.91,VALID,0,INVALID,163.868,VALID,0,VALID,22.0283,VALID,293,VALID,0,
2011-07-23, 00:49:05,VALID,1002.94,VALID,0,INVALID,163.868,VALID,0,VALID,22.0089,VALID,297,VALID,0,
2011-07-23, 00:50:05,VALID,1002.95,VALID,0,INVALID,163.891,VALID,0,VALID,21.9911,VALID,279,VALID,0,
2011-07-23, 00:51:05,VALID,1002.97,VALID,0.5,INVALID,163.876,VALID,0,VALID,21.9311,VALID,299,VALID,0,
2011-07-23, 00:52:05,VALID,1002.96,VALID,0,INVALID,163.891,VALID,0,VALID,21.8938,VALID,290,VALID,0,
2011-07-23, 00:53:05,VALID,1002.92,VALID,0.5,INVALID,163.884,VALID,0,VALID,21.8727,VALID,286,VALID,0,
2011-07-23, 00:54:05,VALID,1002.91,VALID,0,INVALID,163.914,VALID,0,VALID,21.8533,VALID,315,VALID,0,
2011-07-23, 00:55:05,VALID,1002.87,VALID,0.5,INVALID,163.929,VALID,0,VALID,21.8355,VALID,347,VALID,0,
2011-07-23, 00:56:05,VALID,1002.86,VALID,0,INVALID,163.899,VALID,0,VALID,21.8144,VALID,277,VALID,0,
2011-07-23, 00:57:05,VALID,1002.81,VALID,0.5,INVALID,163.884,VALID,0,VALID,21.816,VALID,283,VALID,0,
2011-07-23, 00:58:05,VALID,1002.78,VALID,0,INVALID,163.899,VALID,0,VALID,21.7949,VALID,17,VALID,0,
2011-07-23, 00:59:05,VALID,1002.71,VALID,0,INVALID,163.891,VALID,0,VALID,21.8144,VALID,345,VALID,0,
2011-07-23, 01:00:05,VALID,1002.67,VALID,0.5,INVALID,163.884,VALID,0,VALID,21.8355,VALID,333,VALID,0,
2011-07-23, 01:01:05,VALID,1002.72,VALID,0,INVALID,163.876,VALID,0,VALID,21.8144,VALID,339,VALID,0,
2011-07-23, 01:02:05,VALID,1002.74,VALID,0,INVALID,163.891,VALID,0,VALID,21.816,VALID,350,VALID,0,
2011-07-23, 01:03:05,VALID,1002.74,VALID,0.5,INVALID,163.891,VALID,0,VALID,21.7949,VALID,350,VALID,0,
2011-07-23, 01:04:05,VALID,1002.69,VALID,0,INVALID,163.899,VALID,0,VALID,21.816,VALID,354,VALID,0,
2011-07-23, 01:05:05,VALID,1002.71,VALID,0,INVALID,163.922,VALID,0,VALID,21.8355,VALID,349,VALID,0,
2011-07-23, 01:06:05,VALID,1002.71,VALID,0.5,INVALID,163.906,VALID,0,VALID,21.8144,VALID,348,VALID,0,
2011-07-23, 01:07:05,VALID,1002.71,VALID,0,INVALID,163.899,VALID,0,VALID,21.8355,VALID,349,VALID,0,
2011-07-23, 01:08:05,VALID,1002.73,VALID,0,INVALID,163.929,VALID,0,VALID,21.7949,VALID,358,VALID,0,
2011-07-23, 01:09:05,VALID,1002.74,VALID,0.5,INVALID,163.891,VALID,0,VALID,21.8355,VALID,358,VALID,0,
2011-07-23, 01:10:05,VALID,1002.72,VALID,0,INVALID,163.914,VALID,0,VALID,21.7949,VALID,4,VALID,0,
2011-07-23, 01:11:05,VALID,1002.68,VALID,0,INVALID,163.914,VALID,0,VALID,21.8338,VALID,15,VALID,0,
2011-07-23, 01:12:05,VALID,1002.69,VALID,0.5,INVALID,163.914,VALID,0,VALID,21.8338,VALID,44,VALID,0,
2011-07-23, 01:13:05,VALID,1002.65,VALID,0,INVALID,163.891,VALID,0,VALID,21.8744,VALID,41,VALID,0,
2011-07-23, 01:14:05,VALID,1002.66,VALID,0,INVALID,163.914,VALID,0,VALID,21.8533,VALID,13,VALID,0,
2011-07-23, 01:15:05,VALID,1002.66,VALID,0,INVALID,163.899,VALID,0,VALID,21.8922,VALID,356,VALID,0,
2011-07-23, 01:16:05,VALID,1002.61,VALID,0,INVALID,163.899,VALID,0,VALID,21.8922,VALID,355,VALID,0,
2011-07-23, 01:17:05,VALID,1002.65,VALID,0,INVALID,163.891,VALID,0,VALID,21.9522,VALID,355,VALID,0,
2011-07-23, 01:18:05,VALID,1002.65,VALID,0,INVALID,163.868,VALID,0,VALID,21.9911,VALID,355,VALID,0,
2011-07-23, 01:19:05,VALID,1002.68,VALID,0.5,INVALID,163.906,VALID,0,VALID,21.9894,VALID,355,VALID,0,
2011-07-23, 01:20:05,VALID,1002.66,VALID,0,INVALID,163.906,VALID,0,VALID,22.0089,VALID,355,VALID,0,
2011-07-23, 01:21:05,VALID,1002.66,VALID,0,INVALID,163.884,VALID,0,VALID,22.0495,VALID,350,VALID,0,
2011-07-23, 01:22:05,VALID,1002.64,VALID,0,INVALID,163.884,VALID,0,VALID,22.0478,VALID,350,VALID,0,
2011-07-23, 01:23:05,VALID,1002.62,VALID,0,INVALID,163.906,VALID,0,VALID,22.0672,VALID,350,VALID,0,
2011-07-23, 01:24:05,VALID,1002.59,VALID,0.5,INVALID,163.891,VALID,0,VALID,22.1078,VALID,350,VALID,0,
2011-07-23, 01:25:05,VALID,1002.6,VALID,0,INVALID,163.884,VALID,0,VALID,22.1078,VALID,350,VALID,0,
2011-07-23, 01:26:05,VALID,1002.56,VALID,0,INVALID,163.868,VALID,0,VALID,22.1273,VALID,350,VALID,0,
2011-07-23, 01:27:05,VALID,1002.57,VALID,0,INVALID,163.876,VALID,0,VALID,22.1467,VALID,350,VALID,0,
2011-07-23, 01:28:05,VALID,1002.54,VALID,0.5,INVALID,163.876,VALID,0,VALID,22.1256,VALID,318,VALID,0,
2011-07-23, 01:29:05,VALID,1002.5,VALID,0,INVALID,163.876,VALID,0,VALID,22.1273,VALID,318,VALID,0,
2011-07-23, 01:30:05,VALID,1002.48,VALID,0,INVALID,163.884,VALID,0,VALID,22.1256,VALID,318,VALID,0,
2011-07-23, 01:31:05,VALID,1002.43,VALID,0.5,INVALID,163.868,VALID,0,VALID,22.1256,VALID,318,VALID,0,
2011-07-23, 01:32:05,VALID,1002.39,VALID,0,INVALID,163.884,VALID,0,VALID,22.1662,VALID,318,VALID,0,
2011-07-23, 01:33:05,VALID,1002.4,VALID,0.5,INVALID,163.884,VALID,0,VALID,22.1467,VALID,318,VALID,0,
2011-07-23, 01:34:05,VALID,1002.42,VALID,0,INVALID,163.861,VALID,0,VALID,22.1662,VALID,318,VALID,0,
2011-07-23, 01:35:05,VALID,1002.42,VALID,0,INVALID,163.884,VALID,0,VALID,22.1451,VALID,318,VALID,0,
2011-07-23, 01:36:05,VALID,1002.39,VALID,0.5,INVALID,163.884,VALID,0,VALID,22.1857,VALID,318,VALID,0,
2011-07-23, 01:37:05,VALID,1002.37,VALID,0,INVALID,163.891,VALID,0,VALID,22.2051,VALID,318,VALID,0,
2011-07-23, 01:38:05,VALID,1002.33,VALID,0,INVALID,163.876,VALID,0,VALID,22.1645,VALID,318,VALID,0,
2011-07-23, 01:39:05,VALID,1002.28,VALID,0,INVALID,163.891,VALID,0,VALID,22.2051,VALID,318,VALID,0,
2011-07-23, 01:40:05,VALID,1002.23,VALID,0,INVALID,163.868,VALID,0,VALID,22.1857,VALID,318,VALID,0,
2011-07-23, 01:41:05,VALID,1002.19,VALID,0.5,INVALID,163.868,VALID,0,VALID,22.1645,VALID,320,VALID,0,
2011-07-23, 01:42:05,VALID,1002.18,VALID,0,INVALID,163.884,VALID,0,VALID,22.2034,VALID,335,VALID,0,
2011-07-23, 01:43:05,VALID,1002.13,VALID,0,INVALID,163.891,VALID,0,VALID,22.1857,VALID,335,VALID,0,
2011-07-23, 01:44:05,VALID,1002.13,VALID,0,INVALID,163.868,VALID,0,VALID,22.2051,VALID,335,VALID,0,
2011-07-23, 01:45:05,VALID,1002.15,VALID,0,INVALID,163.876,VALID,0,VALID,22.184,VALID,344,VALID,0,
2011-07-23, 01:46:05,VALID,1002.18,VALID,0,INVALID,163.884,VALID,0,VALID,22.184,VALID,344,VALID,0,
2011-07-23, 01:47:05,VALID,1002.15,VALID,0,INVALID,163.884,VALID,0,VALID,22.184,VALID,344,VALID,0,
2011-07-23, 01:48:05,VALID,1002.14,VALID,0.5,INVALID,163.876,VALID,0,VALID,22.2229,VALID,344,VALID,0,
2011-07-23, 01:49:05,VALID,1002.1,VALID,0,INVALID,163.868,VALID,0,VALID,22.2229,VALID,344,VALID,0,
2011-07-23, 01:50:04,VALID,1002.09,VALID,0,INVALID,163.876,VALID,0,VALID,22.2635,VALID,344,VALID,0,
2011-07-23, 01:51:04,VALID,1002.08,VALID,0,INVALID,163.876,VALID,0,VALID,22.2618,VALID,344,VALID,0,
2011-07-23, 01:52:04,VALID,1002.07,VALID,0,INVALID,163.861,VALID,0,VALID,22.2618,VALID,344,VALID,0,
2011-07-23, 01:53:04,VALID,1002.02,VALID,0,INVALID,163.876,VALID,0,VALID,22.2812,VALID,344,VALID,0,
2011-07-23, 01:54:04,VALID,1002.01,VALID,0.5,INVALID,163.876,VALID,0,VALID,22.3007,VALID,344,VALID,0,
2011-07-23, 01:55:04,VALID,1001.93,VALID,0,INVALID,163.853,VALID,0,VALID,22.3202,VALID,344,VALID,0,
2011-07-23, 01:56:04,VALID,1001.91,VALID,0,INVALID,163.868,VALID,0,VALID,22.3396,VALID,344,VALID,0,
2011-07-23, 01:57:04,VALID,1001.86,VALID,0,INVALID,163.868,VALID,0,VALID,22.3591,VALID,349,VALID,0,
2011-07-23, 01:58:04,VALID,1001.81,VALID,0,INVALID,163.861,VALID,0,VALID,22.4369,VALID,24,VALID,0,
2011-07-23, 01:59:04,VALID,1001.83,VALID,0,INVALID,163.861,VALID,0,VALID,22.4953,VALID,24,VALID,0,
2011-07-23, 02:00:04,VALID,1001.81,VALID,0.5,INVALID,163.845,VALID,0,VALID,22.5342,VALID,24,VALID,0,
2011-07-23, 02:01:04,VALID,1001.87,VALID,0,INVALID,163.868,VALID,0,VALID,22.5519,VALID,24,VALID,0,
2011-07-23, 02:02:04,VALID,1001.87,VALID,0,INVALID,163.861,VALID,0,VALID,22.5925,VALID,57,VALID,0,
2011-07-23, 02:03:04,VALID,1001.88,VALID,0,INVALID,163.853,VALID,0,VALID,22.5925,VALID,57,VALID,0,
2011-07-23, 02:04:04,VALID,1001.9,VALID,0,INVALID,163.845,VALID,0.100563,VALID,22.612,VALID,130,VALID,0,
2011-07-23, 02:05:04,VALID,1001.86,VALID,0,INVALID,163.845,VALID,0,VALID,22.612,VALID,130,VALID,0,
2011-07-23, 02:06:04,VALID,1001.86,VALID,0,INVALID,163.83,VALID,0.100563,VALID,22.6509,VALID,130,VALID,0,
2011-07-23, 02:07:04,VALID,1001.88,VALID,0.5,INVALID,163.838,VALID,0,VALID,22.7093,VALID,94,VALID,0,
2011-07-23, 02:08:04,VALID,1001.81,VALID,0,INVALID,163.845,VALID,0,VALID,22.7694,VALID,93,VALID,0,
2011-07-23, 02:09:04,VALID,1001.81,VALID,0,INVALID,163.845,VALID,0,VALID,22.8066,VALID,93,VALID,0,
2011-07-23, 02:10:04,VALID,1001.77,VALID,0,INVALID,163.838,VALID,0,VALID,22.826,VALID,93,VALID,0,
2011-07-23, 02:11:04,VALID,1001.76,VALID,0,INVALID,163.815,VALID,0,VALID,22.8649,VALID,93,VALID,0,
2011-07-23, 02:12:04,VALID,1001.73,VALID,0,INVALID,163.83,VALID,0,VALID,22.8844,VALID,93,VALID,0,
2011-07-23, 02:13:04,VALID,1001.71,VALID,0.5,INVALID,163.807,VALID,0,VALID,22.9039,VALID,93,VALID,0,
2011-07-23, 02:14:04,VALID,1001.71,VALID,0,INVALID,163.8,VALID,0,VALID,22.9233,VALID,93,VALID,0,
2011-07-23, 02:15:04,VALID,1001.7,VALID,0,INVALID,163.815,VALID,0,VALID,22.9233,VALID,93,VALID,0,
2011-07-23, 02:16:04,VALID,1001.65,VALID,0,INVALID,163.83,VALID,0,VALID,22.9233,VALID,93,VALID,0,
2011-07-23, 02:17:04,VALID,1001.64,VALID,0,INVALID,163.815,VALID,0,VALID,22.9428,VALID,93,VALID,0,
2011-07-23, 02:18:04,VALID,1001.63,VALID,0,INVALID,163.823,VALID,0.100563,VALID,22.9216,VALID,93,VALID,0,
2011-07-23, 02:19:04,VALID,1001.6,VALID,0,INVALID,163.815,VALID,0,VALID,22.9428,VALID,93,VALID,0,
2011-07-23, 02:20:04,VALID,1001.64,VALID,0,INVALID,163.823,VALID,0,VALID,22.9428,VALID,93,VALID,0,
2011-07-23, 02:21:04,VALID,1001.63,VALID,0.5,INVALID,163.8,VALID,0,VALID,22.9622,VALID,93,VALID,0,
2011-07-23, 02:22:04,VALID,1001.64,VALID,0,INVALID,163.815,VALID,0,VALID,22.9428,VALID,93,VALID,0,
2011-07-23, 02:23:04,VALID,1001.64,VALID,0,INVALID,163.777,VALID,0,VALID,22.9428,VALID,93,VALID,0,
2011-07-23, 02:24:04,VALID,1001.63,VALID,0,INVALID,163.792,VALID,0,VALID,22.9428,VALID,93,VALID,0,
2011-07-23, 02:25:04,VALID,1001.62,VALID,0,INVALID,163.807,VALID,0,VALID,22.9216,VALID,93,VALID,0,
2011-07-23, 02:26:04,VALID,1001.61,VALID,0,INVALID,163.83,VALID,0,VALID,22.9216,VALID,93,VALID,0,
2011-07-23, 02:27:04,VALID,1001.63,VALID,0,INVALID,163.838,VALID,0,VALID,22.9233,VALID,93,VALID,0,
2011-07-23, 02:28:04,VALID,1001.61,VALID,0,INVALID,163.83,VALID,0,VALID,22.9445,VALID,93,VALID,0,
2011-07-23, 02:29:04,VALID,1001.6,VALID,0.5,INVALID,163.823,VALID,0,VALID,22.9233,VALID,93,VALID,0,
2011-07-23, 02:30:04,VALID,1001.62,VALID,0,INVALID,163.838,VALID,0,VALID,22.9428,VALID,93,VALID,0,
2011-07-23, 02:31:04,VALID,1001.61,VALID,0,INVALID,163.83,VALID,0,VALID,22.9622,VALID,93,VALID,0,
2011-07-23, 02:32:04,VALID,1001.65,VALID,0,INVALID,163.83,VALID,0.100563,VALID,22.9817,VALID,93,VALID,0,
2011-07-23, 02:33:04,VALID,1001.7,VALID,0,INVALID,163.815,VALID,0,VALID,22.9817,VALID,93,VALID,0,
2011-07-23, 02:34:04,VALID,1001.72,VALID,0,INVALID,163.784,VALID,0,VALID,23.0012,VALID,93,VALID,0,
2011-07-23, 02:35:04,VALID,1001.72,VALID,0,INVALID,163.792,VALID,0,VALID,22.98,VALID,93,VALID,0,
2011-07-23, 02:36:04,VALID,1001.78,VALID,0,INVALID,163.8,VALID,0,VALID,23.0012,VALID,92,VALID,0,
2011-07-23, 02:37:04,VALID,1001.83,VALID,0,INVALID,163.815,VALID,0,VALID,23.0012,VALID,92,VALID,0,
2011-07-23, 02:38:04,VALID,1001.81,VALID,0,INVALID,163.8,VALID,0,VALID,23.0206,VALID,92,VALID,0,
2011-07-23, 02:39:04,VALID,1001.87,VALID,0,INVALID,163.845,VALID,0,VALID,23.0189,VALID,92,VALID,0,
2011-07-23, 02:40:04,VALID,1001.92,VALID,0.5,INVALID,163.8,VALID,0,VALID,23.0595,VALID,77,VALID,0,
2011-07-23, 02:41:04,VALID,1001.92,VALID,0,INVALID,163.807,VALID,0,VALID,23.0595,VALID,66,VALID,0,
2011-07-23, 02:42:04,VALID,1001.97,VALID,0,INVALID,163.8,VALID,0,VALID,23.0807,VALID,66,VALID,0,
2011-07-23, 02:43:04,VALID,1002.01,VALID,0,INVALID,163.823,VALID,0,VALID,23.0401,VALID,347,VALID,0,
2011-07-23, 02:44:04,VALID,1002.04,VALID,0,INVALID,163.83,VALID,0.100563,VALID,22.9994,VALID,346,VALID,0,
2011-07-23, 02:45:04,VALID,1002.06,VALID,0,INVALID,163.8,VALID,0,VALID,22.964,VALID,348,VALID,0,
2011-07-23, 02:46:04,VALID,1002.04,VALID,0,INVALID,163.823,VALID,0,VALID,22.8649,VALID,359,VALID,0,
2011-07-23, 02:47:04,VALID,1002.07,VALID,0,INVALID,163.815,VALID,0,VALID,22.826,VALID,339,VALID,0,
2011-07-23, 02:48:04,VALID,1002.07,VALID,0,INVALID,163.83,VALID,0,VALID,22.7871,VALID,340,VALID,0,
2011-07-23, 02:49:04,VALID,1002.07,VALID,0.5,INVALID,163.853,VALID,0,VALID,22.7659,VALID,238,VALID,0,
2011-07-23, 02:50:04,VALID,1002.05,VALID,0,INVALID,163.823,VALID,0,VALID,22.7888,VALID,244,VALID,0,
2011-07-23, 02:51:04,VALID,1002.04,VALID,0,INVALID,163.823,VALID,0,VALID,22.7482,VALID,250,VALID,0,
2011-07-23, 02:52:04,VALID,1002.02,VALID,0,INVALID,163.83,VALID,0,VALID,22.8066,VALID,296,VALID,0,
2011-07-23, 02:53:04,VALID,1002.04,VALID,0,INVALID,163.83,VALID,0,VALID,22.826,VALID,305,VALID,0,
2011-07-23, 02:54:04,VALID,1002,VALID,0,INVALID,163.838,VALID,0,VALID,22.8455,VALID,315,VALID,0,
2011-07-23, 02:55:04,VALID,1002,VALID,0,INVALID,163.823,VALID,0,VALID,22.826,VALID,351,VALID,0,
2011-07-23, 02:56:04,VALID,1002.01,VALID,0,INVALID,163.838,VALID,0,VALID,22.8649,VALID,352,VALID,0,
2011-07-23, 02:57:04,VALID,1002.01,VALID,0,INVALID,163.83,VALID,0,VALID,22.9233,VALID,336,VALID,0,
2011-07-23, 02:58:04,VALID,1002.02,VALID,0,INVALID,163.83,VALID,0,VALID,22.9622,VALID,330,VALID,0,
2011-07-23, 02:59:04,VALID,1002.01,VALID,0,INVALID,163.807,VALID,0,VALID,22.9834,VALID,330,VALID,0,
2011-07-23, 03:00:04,VALID,1002.03,VALID,0,INVALID,163.823,VALID,0,VALID,22.9817,VALID,330,VALID,0,
2011-07-23, 03:01:04,VALID,1002.04,VALID,0,INVALID,163.815,VALID,0,VALID,22.9622,VALID,330,VALID,0,
2011-07-23, 03:02:04,VALID,1002.04,VALID,0.5,INVALID,163.83,VALID,0,VALID,22.9622,VALID,330,VALID,0,
2011-07-23, 03:03:04,VALID,1002.08,VALID,0,INVALID,163.815,VALID,0,VALID,23.0029,VALID,330,VALID,0,
2011-07-23, 03:04:04,VALID,1002.04,VALID,0,INVALID,163.815,VALID,0,VALID,22.9817,VALID,330,VALID,0,
2011-07-23, 03:05:04,VALID,1002.05,VALID,0,INVALID,163.823,VALID,0,VALID,23.0029,VALID,330,VALID,0,
2011-07-23, 03:06:04,VALID,1002.05,VALID,0,INVALID,163.807,VALID,0,VALID,23.0224,VALID,330,VALID,0,
2011-07-23, 03:07:04,VALID,1002.04,VALID,0,INVALID,163.838,VALID,0,VALID,23.0224,VALID,330,VALID,0,
2011-07-23, 03:08:04,VALID,1002.05,VALID,0,INVALID,163.823,VALID,0,VALID,23.0012,VALID,330,VALID,0,
2011-07-23, 03:09:04,VALID,1002.06,VALID,0,INVALID,163.807,VALID,0,VALID,23.0206,VALID,330,VALID,0,
2011-07-23, 03:10:04,VALID,1002.06,VALID,0,INVALID,163.83,VALID,0,VALID,23.0401,VALID,330,VALID,0,
2011-07-23, 03:11:04,VALID,1002.05,VALID,0,INVALID,163.823,VALID,0,VALID,23.1002,VALID,330,VALID,0,
2011-07-23, 03:12:04,VALID,1002.04,VALID,0,INVALID,163.823,VALID,0,VALID,23.1002,VALID,330,VALID,0,
2011-07-23, 03:13:04,VALID,1002.06,VALID,0,INVALID,163.792,VALID,0,VALID,23.1197,VALID,330,VALID,0,
2011-07-23, 03:14:04,VALID,1002.09,VALID,0,INVALID,163.815,VALID,0,VALID,23.1179,VALID,330,VALID,0,
2011-07-23, 03:15:04,VALID,1002.09,VALID,0,INVALID,163.807,VALID,0,VALID,23.1391,VALID,330,VALID,0,
2011-07-23, 03:16:04,VALID,1002.08,VALID,0,INVALID,163.792,VALID,0,VALID,23.1975,VALID,330,VALID,0,
2011-07-23, 03:17:04,VALID,1002.07,VALID,0.5,INVALID,163.807,VALID,0,VALID,23.1957,VALID,333,VALID,0,
2011-07-23, 03:18:04,VALID,1002.09,VALID,0,INVALID,163.777,VALID,0,VALID,23.1957,VALID,353,VALID,0,
2011-07-23, 03:19:04,VALID,1002.09,VALID,0,INVALID,163.792,VALID,0,VALID,23.2152,VALID,343,VALID,0,
2011-07-23, 03:20:04,VALID,1002.12,VALID,0,INVALID,163.807,VALID,0,VALID,23.2347,VALID,343,VALID,0,
2011-07-23, 03:21:04,VALID,1002.1,VALID,0,INVALID,163.807,VALID,0,VALID,23.2541,VALID,343,VALID,0,
2011-07-23, 03:22:04,VALID,1002.1,VALID,0,INVALID,163.792,VALID,0,VALID,23.2736,VALID,343,VALID,0,
2011-07-23, 03:23:04,VALID,1002.07,VALID,0,INVALID,163.784,VALID,0,VALID,23.2736,VALID,347,VALID,0,
2011-07-23, 03:24:04,VALID,1002.09,VALID,0,INVALID,163.8,VALID,0,VALID,23.3125,VALID,356,VALID,0,
2011-07-23, 03:25:04,VALID,1002.07,VALID,0,INVALID,163.784,VALID,0,VALID,23.332,VALID,356,VALID,0,
2011-07-23, 03:26:04,VALID,1002.1,VALID,0,INVALID,163.792,VALID,0,VALID,23.3727,VALID,356,VALID,0,
2011-07-23, 03:27:04,VALID,1002.07,VALID,0,INVALID,163.807,VALID,0,VALID,23.3727,VALID,355,VALID,0,
2011-07-23, 03:28:04,VALID,1002.07,VALID,0,INVALID,163.762,VALID,0,VALID,23.3921,VALID,355,VALID,0,
2011-07-23, 03:29:04,VALID,1002.07,VALID,0,INVALID,163.792,VALID,0,VALID,23.3904,VALID,355,VALID,0,
2011-07-23, 03:30:04,VALID,1002.04,VALID,0,INVALID,163.769,VALID,0.100563,VALID,23.4275,VALID,297,VALID,0,
2011-07-23, 03:31:04,VALID,1002.06,VALID,0.5,INVALID,163.769,VALID,0.100563,VALID,23.4275,VALID,352,VALID,0,
2011-07-23, 03:32:04,VALID,1002.03,VALID,0,INVALID,163.762,VALID,0.100563,VALID,23.447,VALID,344,VALID,0,
2011-07-23, 03:33:04,VALID,1002.04,VALID,0,INVALID,163.777,VALID,0.100563,VALID,23.4682,VALID,360,VALID,0,
2011-07-23, 03:34:04,VALID,1002.03,VALID,0,INVALID,163.777,VALID,0.100563,VALID,23.4682,VALID,351,VALID,0,
2011-07-23, 03:35:04,VALID,1002.04,VALID,0,INVALID,163.792,VALID,0.100563,VALID,23.4664,VALID,351,VALID,0,
2011-07-23, 03:36:04,VALID,1002.05,VALID,0,INVALID,163.754,VALID,0,VALID,23.4877,VALID,350,VALID,0,
2011-07-23, 03:37:04,VALID,1002.02,VALID,0,INVALID,163.754,VALID,0.100563,VALID,23.4452,VALID,306,VALID,0,
2011-07-23, 03:38:04,VALID,1002.03,VALID,0,INVALID,163.754,VALID,0.100563,VALID,23.5266,VALID,305,VALID,0,
2011-07-23, 03:39:04,VALID,1002.06,VALID,0,INVALID,163.792,VALID,0,VALID,23.5266,VALID,305,VALID,0,
2011-07-23, 03:40:04,VALID,1002.05,VALID,0,INVALID,163.784,VALID,0.100563,VALID,23.5266,VALID,305,VALID,0,
2011-07-23, 03:41:04,VALID,1002.03,VALID,0,INVALID,163.739,VALID,0.100563,VALID,23.5248,VALID,305,VALID,0,
2011-07-23, 03:42:04,VALID,1002.03,VALID,0,INVALID,163.769,VALID,0.100563,VALID,23.5248,VALID,305,VALID,0,
2011-07-23, 03:43:04,VALID,1002.05,VALID,0,INVALID,163.769,VALID,0.100563,VALID,23.5443,VALID,305,VALID,0,
2011-07-23, 03:44:04,VALID,1002.03,VALID,0.5,INVALID,163.769,VALID,0.100563,VALID,23.5443,VALID,305,VALID,0,
2011-07-23, 03:45:04,VALID,1002.07,VALID,0,INVALID,163.784,VALID,0,VALID,23.546,VALID,305,VALID,0,
2011-07-23, 03:46:04,VALID,1002.06,VALID,0,INVALID,163.784,VALID,0,VALID,23.546,VALID,305,VALID,0,
2011-07-23, 03:47:04,VALID,1002.1,VALID,0,INVALID,163.792,VALID,0,VALID,23.5868,VALID,303,VALID,0,
2011-07-23, 03:48:04,VALID,1002.08,VALID,0,INVALID,163.754,VALID,0,VALID,23.6062,VALID,303,VALID,0,
2011-07-23, 03:49:04,VALID,1002.1,VALID,0,INVALID,163.777,VALID,0,VALID,23.585,VALID,303,VALID,0,
2011-07-23, 03:50:04,VALID,1002.09,VALID,0,INVALID,163.784,VALID,0,VALID,23.6062,VALID,303,VALID,0,
2011-07-23, 03:51:04,VALID,1002.09,VALID,0,INVALID,163.769,VALID,0,VALID,23.6062,VALID,303,VALID,0,
2011-07-23, 03:52:04,VALID,1002.05,VALID,0,INVALID,163.784,VALID,0,VALID,23.5655,VALID,303,VALID,0,
2011-07-23, 03:53:04,VALID,1002.09,VALID,0,INVALID,163.784,VALID,0,VALID,23.5868,VALID,353,VALID,0,